Showing default

COSMOS 2425 (GLONASS), 29670

Orbit data source: Space-Track

COSMOS 2425 (GLONASS), 29670 is a Commonwealth of Independent States-origin payload satellite in MEO that was launched on Mon, 25 Dec 2006 UTC via a PROTON-K/DM-2 launch vehicle from the Tyuratam Missile And Space Complex (TTMTR). Payloads include a variety of satellites, spacecraft, and rockets equipped with specific instruments for various scientific and technological missions. These include communications satellites like Starlink; space stations such as the ISS; scientific satellites like the Hubble; Earth observation satellites from companies like Planet Labs, Umbra, and HawkEye 360; GPS; miniature CubeSats for education and research; and military/defense satellites.

Loading next visibility...
COSMOS 2425 (GLONASS) details
Identifier
29670, 2006-062A
Orbit
MEO
Last TLE update2 days ago
Origin
Flag of CISKVR/IACG (CIS)
ManufacturerResehetnev ISS
MissionNon-operational Defense Navigation
Bus & MotorURAGAN, Unknown motor
Mass1,450 kg wet, ~1,200 kg dry
Launch date (UTC)
2006-12-25 (18 years ago)
Launch vehicle
PROTON-K/DM-2
Launch site
Tyuratam Missile And Space Complex (TTMTR)
Object type
Payload
Rocket body
Debris
Shape & HBRCyl + 1 Arm + 2 Pan, 7.8 m
Radar Cross Section8.145 m², Large (>1 m²)

Expand to show TLE details & history

TLE from 2 days ago
0 COSMOS 2425 (GLONASS)
1 29670U 06062A   24359.20049344  .00000085  00000-0  00000-0 0  9990
2 29670  64.6908 212.2664 0021775 358.8307 185.5504  2.13117865140072
Epoch: 2024-12-24T04:48Z
Definitive object data (Epoch: 2024-12-24T04:48:42.633Z)
Latitude-3.93156°
Longitude-131.25829°
Altitude19,185.09 km
Speed3.945 km/s
True Right ascension02h 16m 31s
True Declination-3° 55' 30"
Sunlit
Object was in daylight at TLE epoch
Visualization TLE readout
Latitude64.23824°
Longitude148.6118°
Altitude19,144.937 km
Speed3.953 km/s
Apparent Right ascension21h 09m 33s
Apparent Declination49° 51' 09"
Sunlit
Object is in daylight
Visualization observer readout
Local Sidereal Time09:40:21
Azimuth4.956° NNE
Elevation0.024°
Doppler factor1
Orbital elements
Apogee altitude19,183.787 km
Perigee altitude19,072.707 km
Semi-major axis25,506.384 km
Eccentricity0.0021775
Inclination64.6908°
RAAN212.2664°
Arg. of periapsis358.8307°
True anomaly185.52633°
Mean anomaly185.5504°
Eccentric anomaly185.53836°
Mean motion0.53281 °/min
BSTARUnknown
Orbital period675.67 mins
Loading maneuver chart data...
Loading historical data...
Loading historical data...
Loading historical data...
Loading historical data...
Loading historical data...
Loading historical data...
Loading historical data...

COSMOS 2425 (GLONASS) Visibility forecast

Observer location: undefined°, undefined

Span
Click to sort rows by Start time (UTC) header in descending order
Start Az.
Max El. time (UTC)
Max El. Az.
Max El.
End time (UTC)
End Az.
369 mins2024-12-26 18:38:11.920Z248.437° W2024-12-26 22:04:11.920Z30.992° NE40.942°2024-12-27 00:47:11.920Z140.27° SSE
|